Time,TemperatureF,DewpointF,PressureIn,WindDirection,WindDirectionDegrees,WindSpeedMPH,WindSpeedGustMPH,Humidity,HourlyPrecipIn,Conditions,Clouds,dailyrainin,SoftwareType,DateUTC
2013-01-18 00:02:00,35.0,25.0,30.27,NNE,23,1.0,4.0,66,0.00,,,0.00,,2013-01-18 08:02:00,
2013-01-18 00:11:00,35.0,25.0,30.27,NNE,23,1.0,4.0,66,0.00,,,0.00,,2013-01-18 08:11:00,
2013-01-18 00:22:00,35.0,25.0,30.27,NE,45,4.0,7.0,66,0.00,,,0.00,,2013-01-18 08:22:00,
2013-01-18 00:32:00,35.0,25.0,30.27,NNE,23,0.0,7.0,66,0.00,,,0.00,,2013-01-18 08:32:00,
2013-01-18 00:42:00,35.0,25.0,30.27,NNE,23,0.0,7.0,66,0.00,,,0.00,,2013-01-18 08:42:00,
2013-01-18 00:52:00,35.0,25.0,30.26,NNE,23,2.0,4.0,66,0.00,,,0.00,,2013-01-18 08:52:00,
2013-01-18 01:02:00,35.0,24.0,30.27,NNE,33,2.0,3.0,65,0.00,,,0.00,,2013-01-18 09:02:00,
2013-01-18 01:12:00,35.0,24.0,30.27,NNE,33,2.0,3.0,65,0.00,,,0.00,,2013-01-18 09:12:00,
2013-01-18 01:22:00,35.0,24.0,30.27,NNE,27,1.0,4.0,65,0.00,,,0.00,,2013-01-18 09:22:00,
2013-01-18 01:32:00,35.0,24.0,30.27,NNE,20,0.0,1.0,64,0.00,,,0.00,,2013-01-18 09:32:00,
2013-01-18 01:42:00,35.0,24.0,30.27,NNE,20,0.0,1.0,64,0.00,,,0.00,,2013-01-18 09:42:00,
2013-01-18 01:52:00,35.0,24.0,30.27,NE,34,1.0,4.0,64,0.00,,,0.00,,2013-01-18 09:52:00,
2013-01-18 02:02:00,35.0,24.0,30.27,NNE,22,2.0,4.0,65,0.00,,,0.00,,2013-01-18 10:02:00,
2013-01-18 02:11:00,35.0,24.0,30.27,NNE,22,2.0,4.0,65,0.00,,,0.00,,2013-01-18 10:11:00,
2013-01-18 02:22:00,34.0,23.0,30.27,NE,39,1.0,4.0,65,0.00,,,0.00,,2013-01-18 10:22:00,
2013-01-18 02:32:00,34.0,23.0,30.27,North,360,0.0,2.0,65,0.00,,,0.00,,2013-01-18 10:32:00,
2013-01-18 02:42:00,34.0,23.0,30.27,North,360,0.0,2.0,65,0.00,,,0.00,,2013-01-18 10:42:00,
2013-01-18 02:52:00,33.0,22.0,30.26,North,360,0.0,1.0,64,0.00,,,0.00,,2013-01-18 10:52:00,
2013-01-18 03:02:00,33.0,22.0,30.26,NNW,340,0.0,0.0,64,0.00,,,0.00,,2013-01-18 11:02:00,
2013-01-18 03:11:00,33.0,22.0,30.26,NNW,340,0.0,0.0,64,0.00,,,0.00,,2013-01-18 11:11:00,
2013-01-18 03:22:00,33.0,22.0,30.26,North,356,0.0,1.0,63,0.00,,,0.00,,2013-01-18 11:22:00,
2013-01-18 03:32:00,32.0,21.0,30.26,NNE,20,0.0,0.0,64,0.00,,,0.00,,2013-01-18 11:32:00,
2013-01-18 03:42:00,32.0,21.0,30.26,NNE,20,0.0,0.0,64,0.00,,,0.00,,2013-01-18 11:42:00,
2013-01-18 03:53:00,32.0,21.0,30.25,NNE,20,0.0,0.0,63,0.00,,,0.00,,2013-01-18 11:53:00,
2013-01-18 04:02:00,32.0,21.0,30.25,NNE,26,0.0,1.0,64,0.00,,,0.00,,2013-01-18 12:02:00,
2013-01-18 04:11:00,32.0,21.0,30.25,NNE,26,0.0,1.0,64,0.00,,,0.00,,2013-01-18 12:11:00,
2013-01-18 04:22:00,32.0,22.0,30.25,NE,46,1.0,4.0,65,0.00,,,0.00,,2013-01-18 12:22:00,
2013-01-18 04:32:00,32.0,22.0,30.25,NNE,20,0.0,0.0,65,0.00,,,0.00,,2013-01-18 12:32:00,
2013-01-18 04:42:00,32.0,22.0,30.25,NNE,20,0.0,0.0,65,0.00,,,0.00,,2013-01-18 12:42:00,
2013-01-18 04:52:00,32.0,21.0,30.25,NNE,20,0.0,0.0,64,0.00,,,0.00,,2013-01-18 12:52:00,
2013-01-18 05:02:00,32.0,21.0,30.25,SSE,150,0.0,0.0,64,0.00,,,0.00,,2013-01-18 13:02:00,
2013-01-18 05:12:00,32.0,21.0,30.25,SSE,150,0.0,0.0,64,0.00,,,0.00,,2013-01-18 13:12:00,
2013-01-18 05:22:00,31.0,20.0,30.25,NNE,21,2.0,6.0,64,0.00,,,0.00,,2013-01-18 13:22:00,
2013-01-18 05:33:00,31.0,20.0,30.25,NNE,32,2.0,5.0,64,0.00,,,0.00,,2013-01-18 13:33:00,
2013-01-18 05:42:00,31.0,20.0,30.25,NNE,32,2.0,5.0,64,0.00,,,0.00,,2013-01-18 13:42:00,
2013-01-18 05:52:00,31.0,20.0,30.25,NE,40,0.0,2.0,63,0.00,,,0.00,,2013-01-18 13:52:00,
2013-01-18 06:03:00,30.0,19.0,30.25,North,360,0.0,0.0,64,0.00,,,0.00,,2013-01-18 14:03:00,
2013-01-18 06:12:00,30.0,19.0,30.25,North,360,0.0,0.0,64,0.00,,,0.00,,2013-01-18 14:12:00,
2013-01-18 06:22:00,30.0,19.0,30.25,North,350,0.0,0.0,64,0.00,,,0.00,,2013-01-18 14:22:00,
2013-01-18 06:33:00,30.0,20.0,30.24,North,360,0.0,0.0,65,0.00,,,0.00,,2013-01-18 14:33:00,
2013-01-18 06:42:00,30.0,20.0,30.24,North,360,0.0,0.0,65,0.00,,,0.00,,2013-01-18 14:42:00,
2013-01-18 06:53:00,30.0,20.0,30.24,NE,40,0.0,0.0,65,0.00,,,0.00,,2013-01-18 14:53:00,
2013-01-18 07:02:00,29.0,19.0,30.25,NE,46,1.0,3.0,65,0.00,,,0.00,,2013-01-18 15:02:00,
2013-01-18 07:12:00,29.0,19.0,30.25,NE,46,1.0,3.0,65,0.00,,,0.00,,2013-01-18 15:12:00,
2013-01-18 07:22:00,30.0,20.0,30.24,NE,40,0.0,2.0,65,0.00,,,0.00,,2013-01-18 15:22:00,
2013-01-18 07:33:00,30.0,20.0,30.25,NNE,33,2.0,4.0,65,0.00,,,0.00,,2013-01-18 15:33:00,
2013-01-18 07:52:00,30.0,19.0,30.25,NNW,339,0.0,4.0,64,0.00,,,0.00,,2013-01-18 15:52:00,
2013-01-18 08:02:00,30.0,20.0,30.25,NE,37,2.0,4.0,65,0.00,,,0.00,,2013-01-18 16:02:00,
2013-01-18 08:12:00,30.0,20.0,30.25,NE,37,2.0,4.0,65,0.00,,,0.00,,2013-01-18 16:12:00,
2013-01-18 08:22:00,30.0,20.0,30.26,NNE,23,1.0,4.0,65,0.00,,,0.00,,2013-01-18 16:22:00,
2013-01-18 08:32:00,30.0,19.0,30.26,NNE,33,2.0,3.0,64,0.00,,,0.00,,2013-01-18 16:32:00,
2013-01-18 08:42:00,30.0,19.0,30.26,NNE,33,2.0,3.0,64,0.00,,,0.00,,2013-01-18 16:42:00,
2013-01-18 08:52:00,30.0,19.0,30.26,North,351,1.0,3.0,64,0.00,,,0.00,,2013-01-18 16:52:00,
2013-01-18 09:02:00,31.0,21.0,30.26,North,356,2.0,4.0,65,0.00,,,0.00,,2013-01-18 17:02:00,
2013-01-18 09:12:00,31.0,21.0,30.26,North,356,2.0,4.0,65,0.00,,,0.00,,2013-01-18 17:12:00,
2013-01-18 09:22:00,31.0,21.0,30.26,NE,34,2.0,6.0,65,0.00,,,0.00,,2013-01-18 17:22:00,
2013-01-18 09:33:00,32.0,22.0,30.26,NNE,26,2.0,5.0,66,0.00,,,0.00,,2013-01-18 17:33:00,
2013-01-18 09:42:00,32.0,22.0,30.26,NNE,26,2.0,5.0,66,0.00,,,0.00,,2013-01-18 17:42:00,
2013-01-18 09:52:00,33.0,23.0,30.26,NE,47,3.0,7.0,66,0.00,,,0.00,,2013-01-18 17:52:00,
2013-01-18 10:03:00,34.0,24.0,30.26,NNE,30,1.0,6.0,67,0.00,,,0.00,,2013-01-18 18:03:00,
2013-01-18 10:12:00,34.0,24.0,30.26,NNE,30,1.0,6.0,67,0.00,,,0.00,,2013-01-18 18:12:00,
2013-01-18 10:22:00,34.0,24.0,30.26,NNE,28,3.0,6.0,67,0.00,,,0.00,,2013-01-18 18:22:00,
2013-01-18 10:32:00,35.0,24.0,30.26,NE,50,2.0,9.0,65,0.00,,,0.00,,2013-01-18 18:32:00,
2013-01-18 10:42:00,35.0,24.0,30.26,NE,50,2.0,9.0,65,0.00,,,0.00,,2013-01-18 18:42:00,
2013-01-18 10:52:00,35.0,24.0,30.26,ENE,66,3.0,9.0,64,0.00,,,0.00,,2013-01-18 18:52:00,
2013-01-18 11:02:00,36.0,25.0,30.26,NE,55,4.0,10.0,63,0.00,,,0.00,,2013-01-18 19:02:00,
2013-01-18 11:12:00,36.0,25.0,30.26,NE,55,4.0,10.0,63,0.00,,,0.00,,2013-01-18 19:12:00,
2013-01-18 11:22:00,37.0,26.0,30.25,NE,44,3.0,8.0,63,0.00,,,0.00,,2013-01-18 19:22:00,
2013-01-18 11:32:00,37.0,26.0,30.25,East,95,4.0,9.0,63,0.00,,,0.00,,2013-01-18 19:32:00,
2013-01-18 11:42:00,37.0,26.0,30.25,East,95,4.0,9.0,63,0.00,,,0.00,,2013-01-18 19:42:00,
2013-01-18 11:52:00,37.0,26.0,30.25,East,92,2.0,10.0,63,0.00,,,0.00,,2013-01-18 19:52:00,
2013-01-18 12:02:00,38.0,26.0,30.24,NNW,337,3.0,10.0,62,0.00,,,0.00,,2013-01-18 20:02:00,
2013-01-18 12:12:00,38.0,26.0,30.24,NNW,337,3.0,10.0,62,0.00,,,0.00,,2013-01-18 20:12:00,
2013-01-18 12:22:00,38.0,25.0,30.24,NNW,334,4.0,10.0,60,0.00,,,0.00,,2013-01-18 20:22:00,
2013-01-18 12:33:00,40.0,27.0,30.23,WNW,298,2.0,10.0,60,0.00,,,0.00,,2013-01-18 20:33:00,
2013-01-18 12:42:00,40.0,27.0,30.23,WNW,298,2.0,10.0,60,0.00,,,0.00,,2013-01-18 20:42:00,
2013-01-18 12:52:00,40.0,26.0,30.23,WNW,290,3.0,10.0,58,0.00,,,0.00,,2013-01-18 20:52:00,
2013-01-18 13:02:00,41.0,27.0,30.23,NW,311,2.0,10.0,57,0.00,,,0.00,,2013-01-18 21:02:00,
2013-01-18 13:11:00,41.0,27.0,30.23,NW,311,2.0,10.0,57,0.00,,,0.00,,2013-01-18 21:11:00,
2013-01-18 13:22:00,42.0,27.0,30.23,NNW,330,6.0,9.0,56,0.00,,,0.00,,2013-01-18 21:22:00,
2013-01-18 13:32:00,42.0,27.0,30.23,West,260,2.0,10.0,56,0.00,,,0.00,,2013-01-18 21:32:00,
2013-01-18 13:42:00,42.0,27.0,30.23,West,260,2.0,10.0,56,0.00,,,0.00,,2013-01-18 21:42:00,
2013-01-18 13:52:00,43.0,28.0,30.23,WSW,257,1.0,8.0,56,0.00,,,0.00,,2013-01-18 21:52:00,
2013-01-18 14:02:00,43.0,28.0,30.22,NNW,329,3.0,8.0,55,0.00,,,0.00,,2013-01-18 22:02:00,
2013-01-18 14:11:00,43.0,28.0,30.22,NNW,329,3.0,8.0,55,0.00,,,0.00,,2013-01-18 22:11:00,
2013-01-18 14:22:00,43.0,28.0,30.22,West,274,2.0,7.0,54,0.00,,,0.00,,2013-01-18 22:22:00,
2013-01-18 14:32:00,44.0,28.0,30.22,WNW,292,2.0,6.0,52,0.00,,,0.00,,2013-01-18 22:32:00,
2013-01-18 14:42:00,44.0,28.0,30.22,WNW,292,2.0,6.0,52,0.00,,,0.00,,2013-01-18 22:42:00,
2013-01-18 14:52:00,45.0,29.0,30.22,NNW,347,3.0,5.0,53,0.00,,,0.00,,2013-01-18 22:52:00,
2013-01-18 15:02:00,45.0,28.0,30.22,NNW,331,3.0,6.0,52,0.00,,,0.00,,2013-01-18 23:02:00,
2013-01-18 15:11:00,45.0,28.0,30.22,NNW,331,3.0,6.0,52,0.00,,,0.00,,2013-01-18 23:11:00,
2013-01-18 15:22:00,44.0,27.0,30.22,NNW,330,3.0,7.0,51,0.00,,,0.00,,2013-01-18 23:22:00,
2013-01-18 15:32:00,45.0,29.0,30.22,SSW,209,1.0,6.0,54,0.00,,,0.00,,2013-01-18 23:32:00,
2013-01-18 15:42:00,45.0,29.0,30.22,SSW,209,1.0,6.0,54,0.00,,,0.00,,2013-01-18 23:42:00,
2013-01-18 15:52:00,45.0,29.0,30.22,WSW,239,0.0,6.0,54,0.00,,,0.00,,2013-01-18 23:52:00,
2013-01-18 16:02:00,44.0,28.0,30.22,North,360,0.0,2.0,54,0.00,,,0.00,,2013-01-19 00:02:00,
2013-01-18 16:12:00,44.0,28.0,30.22,North,360,0.0,2.0,54,0.00,,,0.00,,2013-01-19 00:12:00,
2013-01-18 16:22:00,44.0,28.0,30.22,WNW,291,1.0,5.0,54,0.00,,,0.00,,2013-01-19 00:22:00,
2013-01-18 16:32:00,43.0,28.0,30.22,SSW,207,0.0,4.0,54,0.00,,,0.00,,2013-01-19 00:32:00,
2013-01-18 16:42:00,43.0,28.0,30.22,SSW,207,0.0,4.0,54,0.00,,,0.00,,2013-01-19 00:42:00,
2013-01-18 16:52:00,43.0,28.0,30.21,West,270,2.0,4.0,54,0.00,,,0.00,,2013-01-19 00:52:00,
2013-01-18 17:02:00,42.0,27.0,30.21,WSW,255,1.0,7.0,55,0.00,,,0.00,,2013-01-19 01:02:00,
2013-01-18 17:12:00,42.0,27.0,30.21,WSW,255,1.0,7.0,55,0.00,,,0.00,,2013-01-19 01:12:00,
2013-01-18 17:22:00,42.0,27.0,30.21,WSW,246,1.0,4.0,55,0.00,,,0.00,,2013-01-19 01:22:00,
2013-01-18 17:32:00,41.0,27.0,30.22,NNW,343,1.0,8.0,56,0.00,,,0.00,,2013-01-19 01:32:00,
2013-01-18 17:52:00,41.0,27.0,30.22,West,274,3.0,9.0,56,0.00,,,0.00,,2013-01-19 01:52:00,
2013-01-18 18:02:00,40.0,26.0,30.22,NNW,342,4.0,9.0,57,0.00,,,0.00,,2013-01-19 02:02:00,
2013-01-18 18:22:00,39.0,25.0,30.23,North,349,2.0,7.0,58,0.00,,,0.00,,2013-01-19 02:22:00,
2013-01-18 18:32:00,39.0,26.0,30.23,SW,220,0.0,4.0,59,0.00,,,0.00,,2013-01-19 02:32:00,
2013-01-18 18:52:00,39.0,26.0,30.23,SW,220,0.0,0.0,60,0.00,,,0.00,,2013-01-19 02:52:00,
2013-01-18 19:02:00,38.0,25.0,30.23,North,360,0.0,3.0,60,0.00,,,0.00,,2013-01-19 03:02:00,
2013-01-18 19:11:00,38.0,25.0,30.23,North,360,0.0,3.0,60,0.00,,,0.00,,2013-01-19 03:11:00,
2013-01-18 19:22:00,37.0,24.0,30.24,North,360,0.0,0.0,60,0.00,,,0.00,,2013-01-19 03:22:00,
2013-01-18 19:32:00,36.0,24.0,30.24,North,360,0.0,0.0,61,0.00,,,0.00,,2013-01-19 03:32:00,
2013-01-18 19:52:00,36.0,24.0,30.24,SSW,200,0.0,1.0,62,0.00,,,0.00,,2013-01-19 03:52:00,
2013-01-18 20:02:00,35.0,23.0,30.24,North,360,0.0,0.0,61,0.00,,,0.00,,2013-01-19 04:02:00,
2013-01-18 20:22:00,34.0,22.0,30.24,NNW,340,0.0,0.0,61,0.00,,,0.00,,2013-01-19 04:22:00,
2013-01-18 20:32:00,34.0,23.0,30.24,North,360,0.0,0.0,64,0.00,,,0.00,,2013-01-19 04:32:00,
2013-01-18 20:52:00,33.0,22.0,30.24,SSW,200,0.0,0.0,63,0.00,,,0.00,,2013-01-19 04:52:00,
2013-01-18 21:03:00,32.0,20.0,30.24,SSW,200,0.0,0.0,61,0.00,,,0.00,,2013-01-19 05:03:00,
2013-01-18 21:32:00,32.0,21.0,30.25,SSW,200,0.0,0.0,64,0.00,,,0.00,,2013-01-19 05:32:00,
2013-01-18 21:52:00,32.0,21.0,30.25,North,360,0.0,0.0,64,0.00,,,0.00,,2013-01-19 05:52:00,
2013-01-18 22:02:00,32.0,20.0,30.25,SSW,200,0.0,0.0,62,0.00,,,0.00,,2013-01-19 06:02:00,
2013-01-18 22:22:00,32.0,21.0,30.25,SSW,200,0.0,0.0,64,0.00,,,0.00,,2013-01-19 06:22:00,
2013-01-18 22:32:00,32.0,22.0,30.26,SW,220,0.0,0.0,65,0.00,,,0.00,,2013-01-19 06:32:00,
2013-01-18 22:52:00,33.0,23.0,30.25,SW,220,0.0,0.0,65,0.00,,,0.00,,2013-01-19 06:52:00,
2013-01-18 23:02:00,33.0,23.0,30.25,North,360,0.0,0.0,66,0.00,,,0.00,,2013-01-19 07:02:00,
2013-01-18 23:22:00,34.0,24.0,30.25,North,360,0.0,0.0,66,0.00,,,0.00,,2013-01-19 07:22:00,
2013-01-18 23:32:00,34.0,24.0,30.26,SSW,200,0.0,0.0,66,0.00,,,0.00,,2013-01-19 07:32:00,
2013-01-18 23:42:00,34.0,24.0,30.26,SSW,200,0.0,0.0,66,0.00,,,0.00,,2013-01-19 07:42:00,
2013-01-18 23:52:00,34.0,24.0,30.26,North,360,0.0,0.0,66,0.00,,,0.00,,2013-01-19 07:52:00,